QPF
0.00 0.00 0.00 0.00 0.00 0.00 0.00 0.00 0.00 0.00 0.00 0.00 0.00 0.00 0.00 0.00 0.00 0.00 0.00 0.00 0.00 0.01 0.02 0.04 0.04 0.04 0.04
0.00 0.00 0.00 0.00 0.00 0.00 0.00 0.00 0.00 0.00 0.00 0.00 0.00 0.00 0.00 0.00 0.00 0.00 0.00 0.00 0.00 0.01 0.01 0.00 0.01 0.01 0.03
0.00 0.00 0.00 0.00 0.00 0.00 0.00 0.00 0.00 0.00 0.00 0.00 0.00 0.00 0.00 0.00 0.00 0.00 0.00 0.00 0.00 0.00 0.00 0.00 0.00 0.00 0.01
0.00 0.00 0.00 0.00 0.00 0.00 0.00 0.00 0.00 0.00 0.00 0.00 0.00 0.00 0.00 0.00 0.00 0.00 0.00 0.00 0.00 0.00 0.00 0.00 0.01 0.01 0.01
0.00 0.00 0.00 0.00 0.00 0.00 0.00 0.00 0.00 0.00 0.00 0.00 0.00 0.00 0.00 0.00 0.00 0.00 0.00 0.00 0.00 0.00 0.00 0.01 0.01 0.02 0.02
0.00 0.00 0.00 0.00 0.00 0.00 0.00 0.00 0.00 0.00 0.00 0.00 0.00 0.00 0.00 0.00 0.00 0.00 0.00 0.00 0.00 0.00 0.00 0.00 0.01 0.01 0.01
0.00 0.00 0.00 0.00 0.00 0.00 0.00 0.00 0.00 0.00 0.00 0.00 0.00 0.00 0.00 0.00 0.00 0.00 0.00 0.00 0.00 0.00 0.00 0.00 0.00 0.01 0.01
0.00 0.00 0.00 0.00 0.00 0.00 0.00 0.00 0.00 0.00 0.00 0.00 0.00 0.00 0.00 0.00 0.00 0.00 0.00 0.00 0.00 0.00 0.00 0.00 0.00 0.00 0.00
0.00 0.00 0.00 0.00 0.00 0.00 0.00 0.00 0.00 0.00 0.00 0.00 0.00 0.00 0.00 0.00 0.00 0.00 0.00 0.00 0.00 0.00 0.00 0.00 0.00 0.00 0.00
0.00 0.00 0.00 0.00 0.00 0.00 0.00 0.00 0.00 0.00 0.00 0.00 0.00 0.00 0.00 0.00 0.00 0.00 0.00 0.00 0.00 0.00 0.00 0.00 0.00 0.00 0.00
0.00 0.00 0.00 0.00 0.00 0.00 0.00 0.00 0.00 0.00 0.00 0.00 0.00 0.00 0.00 0.00 0.00 0.00 0.00 0.00 0.00 0.00 0.00 0.00 0.00 0.00 0.00
0.00 0.00 0.00 0.00 0.00 0.00 0.00 0.00 0.00 0.00 0.00 0.00 0.00 0.00 0.00 0.00 0.00 0.00 0.00 0.00 0.00 0.00 0.00 0.00 0.00 0.00 0.00
0.00 0.00 0.00 0.00 0.00 0.00 0.00 0.00 0.00 0.00 0.00 0.00 0.00 0.00 0.00 0.00 0.00 0.00 0.00 0.00 0.00 0.00 0.00 0.00 0.00 0.00 0.00
0.00 0.00 0.00 0.00 0.00 0.00 0.00 0.00 0.00 0.00 0.00 0.00 0.00 0.00 0.00 0.00 0.00 0.00 0.00 0.00 0.00 0.00 0.00 0.00 0.00 0.00 0.00
0.00 0.00 0.00 0.00 0.00 0.00 0.00 0.00 0.00 0.00 0.00 0.00 0.00 0.00 0.00 0.00 0.00 0.00 0.00 0.00 0.00 0.00 0.00 0.00 0.00 0.00 0.00
0.00 0.00 0.00 0.00 0.00 0.00 0.00 0.00 0.00 0.00 0.00 0.00 0.00 0.00 0.00 0.00 0.00 0.00 0.00 0.00 0.00 0.00 0.00 0.00 0.00 0.00 0.00
0.00 0.00 0.00 0.00 0.00 0.00 0.00 0.00 0.00 0.00 0.00 0.00 0.00 0.00 0.00 0.00 0.00 0.00 0.00 0.00 0.00 0.00 0.00 0.00 0.00 0.00 0.00
MSLP
1021.51 1021.15 1020.96 1020.63 1020.23 1019.77 1019.32 1018.92 1018.43 1017.78 1017.18 1016.55 1015.98 1015.38 1014.99 1014.48 1013.99 1013.55 1013.11 1012.74 1012.34 1011.94 1011.51 1011.09 1010.57 1010.20 1010.06
1021.23 1020.94 1020.63 1020.19 1019.88 1019.42 1018.82 1018.20 1017.76 1017.23 1016.63 1015.89 1015.35 1014.86 1014.32 1013.89 1013.38 1012.78 1012.38 1011.95 1011.48 1011.14 1010.73 1010.38 1010.02 1009.63 1009.18
1020.78 1020.43 1020.06 1019.68 1019.31 1018.83 1018.38 1017.64 1017.11 1016.47 1015.77 1015.29 1014.59 1014.10 1013.71 1013.18 1012.62 1012.17 1011.66 1011.24 1010.82 1010.45 1010.04 1009.65 1009.22 1009.00 1008.56
1020.41 1020.10 1019.77 1019.18 1018.91 1018.45 1017.58 1017.06 1016.41 1015.79 1015.05 1014.66 1013.86 1013.58 1013.10 1012.59 1012.05 1011.48 1011.02 1010.56 1010.13 1009.69 1009.11 1008.70 1008.39 1007.94 1007.60
1020.08 1019.71 1019.27 1018.76 1018.50 1017.89 1017.29 1016.35 1015.65 1015.16 1014.34 1014.15 1013.64 1013.37 1012.47 1011.93 1011.38 1010.79 1010.30 1009.74 1009.03 1008.47 1008.01 1007.58 1007.19 1006.87 1006.53
1019.64 1019.30 1018.70 1018.35 1017.86 1017.40 1016.72 1016.11 1014.91 1014.10 1014.01 1013.37 1012.95 1012.32 1011.56 1011.10 1010.46 1009.72 1009.02 1008.48 1008.03 1007.41 1006.90 1006.44 1006.10 1005.80 1005.40
1018.70 1018.57 1018.06 1017.65 1017.14 1016.59 1016.12 1015.55 1014.81 1013.88 1013.58 1012.39 1012.24 1011.28 1010.51 1009.92 1009.24 1008.58 1007.88 1007.39 1006.94 1006.41 1005.80 1005.30 1004.89 1004.50 1004.17
1017.95 1017.56 1017.09 1016.60 1016.26 1015.74 1015.32 1014.81 1014.10 1013.56 1013.30 1011.85 1011.16 1010.33 1009.62 1009.01 1008.09 1007.41 1006.83 1006.31 1005.84 1005.28 1004.72 1004.21 1003.86 1003.53 1003.17
1016.95 1016.60 1016.21 1015.76 1015.36 1015.16 1015.01 1014.79 1013.57 1012.83 1012.46 1011.74 1010.30 1009.42 1008.77 1007.83 1007.03 1006.48 1005.88 1005.31 1004.71 1004.23 1003.79 1003.29 1002.86 1002.43 1002.04
1016.89 1016.41 1015.98 1015.62 1015.04 1015.00 1014.85 1014.63 1013.85 1012.20 1011.24 1011.20 1010.15 1010.00 1007.69 1006.59 1006.13 1005.76 1005.19 1004.57 1003.91 1003.30 1002.80 1002.27 1001.85 1001.52 1001.11
1016.50 1015.94 1015.44 1015.08 1014.72 1014.40 1014.24 1014.13 1013.34 1012.34 1010.90 1010.96 1009.70 1009.43 1008.98 1006.74 1005.55 1005.00 1004.38 1003.44 1002.89 1002.31 1001.83 1001.36 1000.93 1000.62 1000.17
1016.29 1015.73 1015.24 1014.73 1014.22 1013.86 1013.36 1012.90 1012.40 1011.53 1010.20 1010.44 1009.45 1008.77 1007.74 1006.39 1004.99 1003.70 1002.97 1002.43 1001.99 1001.23 1000.74 1000.17 999.75 999.27 998.92
1016.10 1015.51 1015.04 1014.36 1013.72 1013.10 1012.41 1011.73 1011.05 1010.16 1009.33 1008.81 1008.34 1007.49 1006.94 1005.74 1004.35 1003.02 1002.01 1000.94 1000.62 1000.10 999.52 999.13 998.77 998.47 998.12
1015.91 1015.21 1014.53 1013.84 1013.20 1012.61 1011.97 1011.13 1010.24 1008.57 1007.91 1007.37 1006.91 1006.43 1005.45 1004.60 1003.72 1002.00 1001.00 1000.64 999.41 998.86 998.43 997.79 997.28 996.92 996.52
1015.77 1015.00 1014.24 1013.53 1012.78 1012.11 1011.46 1010.49 1009.70 1008.29 1006.75 1005.82 1005.36 1004.89 1004.15 1003.51 1002.37 1000.75 999.81 999.00 998.16 997.69 997.48 996.26 995.40 995.05 994.65
1015.39 1014.81 1014.06 1013.26 1012.33 1011.39 1010.72 1010.07 1008.97 1007.68 1006.55 1005.27 1004.31 1003.34 1002.14 1001.11 1000.83 999.59 998.42 997.89 996.77 996.23 995.77 994.96 993.38 992.99 992.61
1015.08 1014.31 1013.57 1012.75 1011.91 1011.01 1010.06 1009.20 1008.05 1007.00 1005.73 1004.63 1003.62 1002.66 1001.24 999.51 998.19 997.89 997.18 996.26 995.33 994.55 994.03 993.38 992.38 991.02 990.96
Thickness
5443 5438 5433 5428 5424 5421 5417 5413 5410 5404 5400 5398 5395 5391 5386 5382 5377 5371 5366 5361 5358 5356 5355 5353 5353 5352 5351
5428 5423 5418 5413 5408 5404 5401 5397 5392 5385 5379 5376 5370 5363 5356 5351 5345 5343 5341 5341 5341 5341 5341 5339 5338 5338 5341
5416 5409 5404 5397 5393 5388 5384 5380 5370 5359 5352 5348 5342 5335 5327 5323 5324 5325 5327 5328 5329 5328 5328 5328 5328 5328 5331
5400 5393 5386 5382 5374 5369 5369 5356 5349 5334 5328 5325 5317 5312 5308 5307 5308 5310 5311 5313 5314 5316 5319 5318 5320 5324 5326
5385 5377 5372 5366 5355 5348 5340 5336 5327 5310 5309 5307 5300 5297 5295 5295 5295 5295 5296 5298 5303 5307 5310 5312 5316 5319 5322
5363 5361 5354 5343 5335 5325 5317 5309 5311 5297 5293 5297 5289 5292 5289 5287 5285 5286 5287 5289 5291 5295 5300 5304 5308 5312 5317
5353 5340 5334 5321 5313 5303 5295 5294 5292 5287 5282 5294 5281 5286 5282 5280 5278 5277 5279 5280 5282 5285 5290 5297 5301 5307 5312
5332 5322 5311 5302 5293 5292 5288 5288 5285 5277 5263 5281 5276 5277 5275 5273 5270 5268 5269 5272 5273 5276 5282 5289 5293 5299 5305
5315 5304 5295 5289 5286 5284 5276 5271 5275 5271 5253 5259 5265 5265 5264 5268 5262 5259 5260 5262 5266 5269 5274 5281 5285 5291 5299
5293 5287 5285 5281 5277 5270 5263 5257 5253 5260 5249 5243 5247 5237 5256 5262 5259 5254 5253 5253 5258 5262 5266 5273 5279 5284 5292
5288 5285 5281 5276 5270 5261 5251 5241 5239 5235 5234 5225 5235 5228 5225 5241 5252 5250 5249 5253 5254 5257 5260 5266 5273 5279 5287
5284 5281 5277 5270 5262 5254 5244 5236 5230 5227 5230 5218 5220 5219 5224 5233 5243 5252 5251 5251 5252 5256 5259 5266 5273 5279 5286
5279 5275 5270 5264 5256 5250 5243 5237 5234 5228 5223 5221 5219 5222 5223 5231 5241 5247 5252 5257 5253 5258 5263 5268 5273 5279 5285
5274 5271 5266 5259 5251 5244 5240 5237 5235 5240 5231 5227 5228 5227 5231 5233 5237 5247 5251 5252 5261 5263 5269 5275 5281 5286 5292
5269 5266 5261 5254 5248 5243 5239 5238 5235 5240 5244 5243 5238 5237 5238 5238 5243 5254 5260 5264 5270 5273 5274 5285 5291 5295 5299
5265 5260 5256 5251 5249 5247 5244 5240 5240 5243 5245 5249 5251 5252 5256 5260 5259 5263 5269 5272 5280 5283 5286 5292 5302 5301 5304
5263 5259 5255 5252 5251 5248 5247 5246 5247 5248 5250 5253 5256 5259 5265 5271 5279 5277 5278 5284 5291 5293 5295 5297 5304 5312 5310